CAPE
0 0 0 0 0 0 0 1 4 1 2 0 0 0 0 0 0 1 1 1 1 1 1 1 1 0 1 1 0 1 1 1 9 3 0 0 0 0 0 0 0 0 0
0 0 0 0 0 0 0 0 0 4 2 4 6 1 0 0 0 1 1 1 1 1 1 0 0 0 0 1 1 1 1 1 1 1 0 0 0 0 0 0 0 0 0
0 0 0 0 0 0 0 0 0 0 4 9 20 12 1 1 0 1 1 1 1 0 0 0 0 0 1 1 0 1 0 0 0 0 0 2 2 0 0 0 0 0 0
0 0 0 0 0 0 0 0 0 0 0 0 0 4 8 3 0 0 0 0 0 0 0 0 0 0 1 1 0 0 0 0 0 0 0 0 1 1 0 0 0 0 0
0 0 0 0 0 0 0 0 0 0 0 0 1 6 8 7 1 0 0 0 0 0 0 0 0 0 0 0 0 0 0 0 0 0 0 0 1 0 0 0 0 0 0
0 0 0 0 0 0 0 0 0 0 0 4 1 0 0 0 0 0 0 0 0 0 0 0 0 0 0 0 0 0 0 0 0 0 0 0 0 0 0 0 0 0 0
0 0 0 0 0 0 0 0 0 0 0 0 0 0 0 0 0 0 0 0 0 0 0 0 0 0 0 0 2 0 0 1 0 0 0 0 0 0 0 0 0 0 0
0 0 0 0 0 0 0 0 0 0 0 0 0 0 0 0 0 0 0 0 0 0 0 0 0 0 1 1 2 2 3 1 0 0 0 0 0 0 0 0 0 0 0
0 0 0 0 0 0 0 0 0 0 0 0 0 0 0 0 0 0 0 0 0 0 0 0 1 0 1 3 2 2 1 1 0 0 0 0 0 0 0 0 0 0 0
0 0 0 0 0 0 0 0 0 0 0 0 0 0 0 0 0 0 0 0 0 0 0 1 2 1 1 1 0 0 0 1 1 1 1 0 0 0 0 0 0 0 0
0 1 0 0 0 0 0 0 0 0 0 0 0 0 0 0 0 0 0 0 0 0 0 0 1 1 0 2 1 1 0 1 1 0 0 0 0 0 0 0 0 0 0
0 0 0 1 1 1 0 0 0 0 0 0 0 0 0 0 0 0 0 0 1 0 0 1 0 1 2 2 1 1 1 2 2 1 1 1 1 1 0 0 0 0 0
0 0 1 0 0 0 2 0 0 0 0 0 0 0 0 0 0 0 1 1 1 0 0 0 0 3 2 1 2 3 3 3 3 2 3 1 2 0 0 0 0 0 0
0 3 0 2 3 0 0 0 1 0 2 2 1 0 2 1 0 1 1 2 2 1 0 1 2 3 1 1 2 2 3 3 2 2 2 1 0 0 0 0 0 0 0
0 0 2 1 2 1 2 2 1 0 1 1 2 1 1 1 1 0 1 2 3 2 1 3 3 1 1 2 2 3 2 2 2 1 1 0 0 0 0 0 0 0 0
0 1 0 1 1 2 2 2 1 0 0 0 0 1 0 0 0 0 0 1 3 3 2 4 4 2 2 2 2 2 1 1 1 0 0 1 0 0 0 0 0 0 0
0 0 1 1 1 3 4 2 3 1 0 0 1 0 1 1 0 0 1 2 3 3 2 4 3 3 3 2 2 2 2 0 0 0 0 0 0 0 0 0 0 0 0
0 0 0 0 1 2 2 3 5 3 2 1 0 0 1 0 0 0 1 1 3 2 2 2 3 3 2 2 2 1 1 0 0 0 0 0 0 0 0 0 0 0 0
0 0 0 0 0 0 0 1 2 4 3 2 0 0 0 0 0 1 1 0 2 2 2 2 2 2 2 1 1 1 1 1 0 0 0 0 0 0 0 0 0 0 0
0 0 0 0 0 0 0 1 3 3 3 2 0 0 0 0 1 1 1 0 0 0 0 0 0 0 0 0 0 0 0 0 0 0 0 0 0 0 0 0 0 0 0
0 0 0 0 0 1 0 0 0 0 0 0 0 0 0 0 0 0 0 0 0 0 0 0 1 0 0 0 0 0 0 0 0 0 0 0 0 0 0 0 0 0 0
0 0 0 0 0 0 0 0 0 0 0 0 0 0 0 0 0 0 0 0 0 0 0 0 0 0 0 0 0 0 0 0 0 0 0 0 0 0 0 0 0 0 0
0 0 0 0 0 0 0 0 0 0 0 0 0 0 0 0 0 0 0 0 0 0 0 0 0 0 0 0 0 0 0 0 0 0 0 0 0 0 0 0 0 0 0
0 0 0 0 0 0 0 0 0 0 0 0 0 0 0 0 0 0 0 0 0 0 0 0 0 0 0 0 0 0 0 0 0 0 0 0 0 0 0 0 0 0 0
0 0 0 0 0 0 0 0 0 0 0 0 0 0 0 0 0 0 0 0 0 0 0 0 0 0 0 0 0 0 0 0 0 0 0 0 0 0 0 0 0 0 0
0 0 0 0 0 0 0 0 0 0 0 0 0 0 0 0 0 0 0 0 0 0 0 0 0 0 0 0 0 0 0 0 0 0 0 0 0 0 0 0 0 0 0
CIN
0 0 0 0 0 0 0 -6 -21 -16 -19 0 0 0 0 0 0 0 0 0 0 0 0 0 0 0 0 0 0 -45 -3 0 -7 -27 0 0 0 0 0 0 0 0 0
0 0 0 0 0 0 0 0 0 -21 -27 -18 -21 -31 -6 0 0 0 0 0 0 0 0 0 0 0 0 0 0 0 0 0 -17 -32 0 0 0 0 0 0 0 0 0
0 0 0 0 0 0 0 0 0 0 -15 -23 -18 -25 -34 -39 -5 0 0 0 0 0 0 0 0 0 0 0 0 0 0 0 0 0 0 0 0 0 0 0 0 0 0
0 0 0 0 0 0 0 0 0 0 0 0 0 -17 -22 -37 0 -16 0 0 0 0 -1 0 0 0 0 0 0 0 0 0 0 0 0 0 0 0 0 0 0 0 0
0 0 0 0 0 0 0 0 0 0 0 0 -11 -14 -17 -26 -27 -4 0 -1 0 0 0 0 0 0 0 0 0 0 0 0 0 0 0 0 0 0 0 0 0 0 0
0 0 0 0 0 0 0 0 0 0 0 -15 -15 0 -22 0 -19 0 0 0 0 0 0 0 0 0 0 0 0 0 0 0 0 0 0 0 0 0 0 0 0 0 0
0 0 0 0 0 0 0 0 0 0 0 0 0 0 0 0 0 0 0 0 0 0 0 0 0 0 0 0 0 0 0 0 0 0 0 0 0 0 0 0 0 0 0
0 0 0 0 0 0 0 0 0 0 0 0 0 0 0 0 0 0 0 0 0 0 0 0 0 0 0 0 0 0 0 0 0 0 0 0 0 0 0 0 0 0 0
0 0 0 0 0 0 0 0 0 0 0 0 0 0 0 0 0 0 0 0 0 0 0 0 0 0 0 0 0 0 0 0 0 0 0 0 0 0 0 0 0 0 0
0 0 0 0 0 0 0 0 0 0 0 0 0 0 0 0 0 0 0 0 0 0 0 0 0 0 0 0 0 0 0 0 0 0 0 0 0 0 0 0 0 0 0
0 0 0 0 0 0 0 0 0 0 0 0 0 0 0 0 0 0 0 0 0 0 0 0 0 0 0 0 0 0 0 0 0 0 0 0 0 0 0 0 0 0 0
0 0 0 0 0 0 0 0 0 0 0 0 0 0 0 0 0 0 0 0 0 0 0 0 0 0 0 0 0 0 0 0 0 0 0 0 0 0 0 0 0 0 0
0 0 0 0 0 0 0 0 0 0 0 0 0 0 0 0 0 0 0 0 0 0 0 0 0 0 0 0 0 0 0 0 0 0 0 0 0 0 0 0 0 0 0
0 0 0 0 0 0 0 0 0 0 0 0 0 0 0 0 0 0 0 0 0 0 0 0 0 0 0 0 0 0 0 0 0 0 0 0 0 0 0 0 0 0 0
0 0 0 0 0 0 0 0 0 0 0 0 0 0 0 0 0 0 0 0 0 0 0 0 0 0 0 0 0 0 0 0 0 0 0 0 0 0 0 0 0 0 0
0 0 0 0 0 0 0 0 -1 0 0 -1 0 0 0 0 0 0 0 0 0 0 0 0 0 0 0 0 0 0 0 0 0 0 0 0 0 0 0 0 0 0 0
0 0 0 0 0 0 0 0 0 0 -1 0 0 0 0 0 0 0 0 0 0 0 0 0 0 0 0 0 0 0 0 0 0 0 0 0 0 0 0 0 0 0 0
0 0 0 0 0 0 0 0 0 0 0 0 0 0 0 0 0 0 0 0 0 0 0 0 0 0 0 0 0 0 0 0 0 0 0 0 0 0 0 0 0 0 0
0 0 0 0 0 0 0 0 0 0 0 0 0 0 0 0 0 0 0 0 0 0 0 0 0 0 0 0 0 0 0 0 0 0 0 0 0 0 0 0 0 0 0
0 0 0 0 0 0 0 0 0 0 0 0 0 0 0 0 0 0 0 0 0 0 0 0 0 0 0 0 0 0 0 0 0 0 0 0 0 0 0 0 0 0 0
0 0 0 0 0 0 0 0 0 0 0 0 0 0 0 0 0 0 0 0 0 0 0 0 0 0 0 0 0 0 0 0 0 0 0 0 0 0 0 0 0 0 0
0 0 0 0 0 0 0 0 0 0 0 0 0 0 0 0 0 0 0 0 0 0 0 0 0 0 0 0 0 0 0 0 0 0 0 0 0 0 0 0 0 0 0
0 0 0 0 0 0 0 0 0 0 0 0 0 0 0 0 0 0 0 0 0 0 0 0 0 0 0 0 0 0 0 0 0 0 0 0 0 0 0 0 0 0 0
0 0 0 0 0 0 0 0 0 0 0 0 0 0 0 0 0 0 0 0 0 0 0 0 0 0 0 0 0 0 0 0 0 0 0 0 0 0 0 0 0 0 0
0 0 0 0 0 0 0 0 0 0 0 0 0 0 0 0 0 0 0 0 0 0 0 0 0 0 0 0 0 0 0 0 0 0 0 0 0 0 0 0 0 0 0
0 0 0 0 0 0 0 0 0 0 0 0 0 0 0 0 0 0 0 0 0 0 0 0 0 0 0 0 0 0 0 0 0 0 0 0 0 0 0 0 0 0 0
Wind_Speed
33 33 35 36 36 35 33 32 30 30 29 28 27 27 27 26 25 25 25 24 25 24 24 24 25 22 23 23 22 21 21 20 24 24 20 18 16 19 20 18 20 23 24
35 35 35 35 36 37 37 35 32 32 31 30 29 29 28 28 27 28 27 26 27 26 25 25 25 24 24 23 22 22 21 21 22 23 20 18 17 21 20 20 19 21 22
38 37 37 37 37 38 38 37 35 33 33 32 32 32 31 30 29 29 28 28 27 27 27 26 25 24 24 24 23 22 21 21 21 21 21 20 20 20 21 20 20 21 22
41 40 41 41 41 40 41 41 39 34 33 33 32 32 31 29 29 28 28 29 29 29 27 27 26 25 25 24 22 22 21 21 21 21 20 20 20 21 20 21 21 20 21
42 42 43 44 43 43 43 42 41 38 34 33 33 31 30 30 29 28 28 29 30 29 28 27 26 25 24 22 22 22 21 21 20 19 21 21 20 21 22 20 18 19 19
44 44 45 45 46 46 45 44 43 42 39 37 35 33 33 31 29 28 28 30 30 30 29 28 26 25 23 21 21 21 19 21 20 21 21 22 20 21 20 16 17 18 20
45 45 45 46 47 47 47 46 46 44 42 41 39 37 36 35 32 31 30 31 30 29 28 26 25 23 22 20 20 20 19 19 20 20 22 21 20 18 15 16 15 16 17
47 47 47 48 49 49 49 48 47 45 44 42 41 38 37 35 32 31 30 30 29 27 25 24 24 23 21 20 19 19 20 20 19 19 19 18 18 15 13 14 13 15 17
49 49 49 50 51 50 50 50 48 47 46 44 41 40 38 37 32 30 28 28 27 25 24 23 22 22 19 19 19 18 18 18 18 16 14 13 13 12 12 12 14 16 19
53 53 52 51 52 53 52 52 49 47 47 45 45 41 39 37 31 29 27 27 28 28 26 24 22 22 20 19 19 19 19 17 14 13 13 12 12 12 12 15 13 16 18
54 54 56 54 53 52 53 52 51 48 47 46 45 42 40 37 34 29 27 27 27 27 27 25 24 23 21 20 19 18 17 13 13 12 13 12 12 13 15 14 13 13 16
59 61 59 57 55 54 54 54 51 49 49 49 48 48 44 39 36 32 29 28 27 27 27 27 26 23 21 20 19 17 15 13 12 13 13 14 13 13 13 13 13 14 15
63 62 61 59 57 56 56 56 54 51 51 51 49 49 48 41 39 35 32 31 29 29 28 27 25 23 22 21 20 18 15 15 15 15 16 15 13 12 12 13 14 14 14
63 62 60 62 62 58 56 55 55 54 53 52 50 49 46 44 40 37 34 33 31 30 27 26 25 24 23 22 20 18 18 17 17 16 15 14 12 11 12 13 13 14 16
63 63 61 59 60 61 60 58 57 55 52 54 53 50 48 47 42 37 35 34 32 30 26 25 25 25 25 24 23 22 20 18 19 16 15 14 13 12 12 12 13 14 16
63 61 61 62 61 60 60 62 56 56 55 54 55 52 50 48 42 37 34 33 31 28 29 31 30 29 29 28 26 23 21 20 19 17 16 15 14 13 11 11 13 14 15
61 61 61 60 60 60 59 59 62 57 53 53 53 52 51 49 42 37 33 31 30 29 34 33 33 32 31 29 27 26 24 21 19 19 17 15 14 12 12 13 13 14 16
57 58 57 56 56 57 56 57 57 58 58 56 49 49 48 44 40 36 32 30 32 32 33 33 33 32 30 29 27 28 24 21 20 19 17 16 15 13 13 14 14 16 18
53 53 52 53 53 54 55 56 54 54 55 55 52 46 43 40 37 35 32 34 34 34 34 33 33 30 32 27 27 27 23 22 20 19 18 16 15 15 15 15 17 17 17
48 49 49 48 49 50 50 52 52 51 51 50 49 46 42 37 38 36 34 34 33 34 33 33 31 28 28 25 24 24 22 21 21 20 17 16 16 16 16 17 17 17 18
45 45 45 44 44 44 45 45 45 45 45 45 43 41 39 37 37 34 33 32 32 31 29 28 27 26 24 22 21 21 22 22 21 19 18 17 16 18 18 17 17 17 17
43 43 42 42 42 41 40 39 38 37 36 36 36 35 33 30 29 27 26 27 25 24 22 22 21 20 19 20 19 18 20 20 19 19 18 18 19 18 18 18 17 18 18
43 43 43 42 41 40 38 36 34 33 32 32 31 31 29 26 24 23 22 21 20 19 18 16 15 15 16 16 16 17 18 18 18 18 19 19 20 19 19 19 18 18 18
42 42 43 42 41 39 37 35 34 32 31 29 28 27 24 22 21 20 19 17 16 15 14 14 13 13 14 14 15 17 17 18 19 19 19 19 20 20 19 19 19 19 19
42 42 42 42 41 39 38 36 34 32 31 29 28 26 24 22 20 19 18 18 16 15 14 14 13 14 15 17 18 19 19 18 19 19 19 20 20 20 20 20 19 19 19
42 42 42 41 41 40 39 37 36 34 32 31 29 27 26 24 22 22 21 20 18 18 17 18 18 19 20 20 20 20 20 20 20 20 20 20 21 21 21 21 20 20 21
Wind_Direction
308 306 295 289 286 284 281 279 277 277 274 273 272 270 269 268 267 268 268 271 272 273 272 273 276 276 283 285 288 287 287 286 294 309 315 318 313 319 324 327 326 322 321
307 306 304 299 293 288 286 285 283 279 279 275 274 272 269 267 266 266 267 269 270 273 274 275 276 280 279 283 286 285 285 289 292 297 307 313 309 316 319 321 325 322 321
305 303 303 301 299 295 292 290 288 286 283 281 278 276 274 271 270 269 268 270 270 272 275 275 276 278 280 284 283 284 287 289 291 296 300 311 313 314 317 321 324 323 323
308 304 299 299 299 297 295 292 291 291 288 285 281 278 276 274 270 269 269 272 274 275 273 274 275 276 278 281 281 282 286 288 291 293 300 303 311 312 315 317 318 323 323
313 306 302 302 302 300 298 296 295 294 292 289 287 283 279 275 273 271 271 273 275 276 275 274 276 278 278 279 282 284 286 288 291 286 297 302 304 306 307 314 317 321 324
313 310 307 306 303 300 300 299 297 295 294 290 287 284 282 280 275 270 272 275 275 275 276 279 280 280 279 278 280 284 281 284 282 290 293 296 299 304 307 309 314 315 317
313 312 310 308 307 303 300 298 298 296 295 292 289 286 284 282 279 275 272 276 277 278 278 279 279 280 280 281 287 287 288 287 289 286 292 293 298 297 301 305 308 313 316
310 311 312 310 307 306 302 299 297 296 294 292 291 288 285 283 281 278 276 276 276 276 274 274 276 275 277 278 282 284 290 292 292 291 292 296 301 298 297 305 309 316 321
309 309 309 309 307 306 304 302 299 296 294 292 290 288 285 284 282 279 277 276 275 274 276 276 274 275 272 275 278 280 285 291 298 301 301 302 301 299 300 307 305 309 312
308 307 307 307 306 304 303 302 301 298 294 292 289 287 285 284 281 277 274 275 275 277 279 278 275 273 271 269 274 276 277 280 285 295 301 301 299 298 300 302 302 304 312
307 306 305 304 303 303 301 301 299 298 295 292 289 287 284 281 280 276 271 272 274 276 275 275 277 274 270 266 270 268 269 268 274 283 291 293 294 295 298 303 306 308 309
304 303 302 302 300 299 299 298 296 295 293 290 288 285 283 280 277 275 270 268 273 272 273 277 277 273 268 265 267 267 264 263 269 276 281 282 282 287 292 299 307 312 315
301 300 299 297 297 296 294 294 293 291 289 288 288 285 284 283 277 273 269 269 271 272 276 275 272 269 265 265 266 261 255 262 265 268 274 276 277 282 291 299 305 311 315
299 298 298 296 295 294 293 291 289 288 287 287 287 287 287 284 280 275 270 268 269 270 271 272 269 267 266 268 263 257 263 262 261 266 272 276 277 278 286 294 300 304 310
299 297 296 295 294 292 291 289 287 285 286 285 285 285 285 284 282 277 271 267 266 265 266 266 264 264 264 264 263 263 264 263 264 267 269 268 271 275 283 289 296 303 308
298 298 297 296 294 293 291 289 288 285 284 283 283 282 284 283 283 277 271 266 261 256 262 260 259 257 258 257 257 257 257 259 263 263 263 264 266 270 275 286 294 300 305
299 297 297 296 295 293 292 290 288 288 286 284 282 281 280 280 279 275 271 266 258 252 259 257 255 255 256 254 252 252 253 251 256 260 258 257 263 265 270 282 290 299 305
303 300 298 297 296 294 293 291 289 288 286 285 286 283 282 279 274 271 268 263 261 252 257 257 256 254 252 250 249 251 250 250 246 249 251 254 258 263 271 280 288 297 302
310 306 303 300 298 295 294 293 290 288 287 286 286 285 284 278 273 268 261 261 259 256 257 257 256 253 252 246 247 248 246 245 243 243 247 250 255 263 273 281 290 295 301
319 315 312 308 305 302 298 296 293 289 288 286 286 285 285 281 276 270 263 260 262 261 261 260 259 257 253 248 245 243 243 240 243 247 248 253 259 265 273 281 285 290 298
329 326 323 320 316 312 308 305 301 297 292 290 289 289 285 280 277 273 268 263 265 263 262 261 258 254 250 244 237 240 242 243 246 250 253 258 263 272 276 280 284 290 296
337 336 335 333 330 324 319 315 311 308 305 300 298 298 298 288 285 281 276 271 270 269 267 263 259 253 246 242 238 235 238 243 249 253 258 265 270 273 275 278 283 289 295
345 345 344 343 343 340 335 332 325 320 314 311 308 306 302 296 291 287 282 278 274 272 272 262 256 252 249 245 244 244 245 247 252 260 263 265 269 271 274 277 281 286 293
346 346 348 349 346 344 341 340 338 334 327 320 318 316 315 308 301 298 292 288 284 281 277 271 261 252 249 251 254 257 261 265 265 265 266 268 270 271 274 278 281 287 292
348 351 351 349 346 342 341 342 337 333 333 332 331 326 321 316 311 308 304 298 293 288 284 277 271 266 264 264 266 268 269 268 268 268 270 271 271 272 276 279 282 287 292
347 349 349 348 346 341 339 338 339 336 331 331 335 332 327 321 315 311 308 305 300 295 288 284 280 276 273 272 271 270 271 271 270 272 273 273 273 275 277 279 281 285 289